Location: Blackie
(50.6050°N, 113.6230°W)
Time: 08:29:33
(UTC+00:00)

ISS - Pass Details

Date: 05 December 2021
Orbit: 413 x 422 km, 51.6° (Epoch: 27 January)

Event Time Altitude Azimuth Distance (km) Brightness Sun altitude
Rises 02:06:44 0° 284° (WNW) 2,387 1.2 -23.6°
Reaches altitude 10° 02:09:07 10° 270° (W) 1,515 0.1 -24.0°
Maximum altitude 02:11:51 23° 216° (SW) 959 -1.6 -24.4°
Enters shadow 02:12:11 22° 207° (SSW) 969 -1.6 -24.5°
